Погода в Янауле

Россия / Республика Башкортостан     56°15′53″N   54°55′47″E
темп.,
°C
ветер,
м/с
пор.,
м/с
влажн.,
%
обл.,
%
осадки,
мм/ч
давл.,
гПа
погр.,
м
15 мая, сб
сб1523:00+19ю466191 0.0 102185
02:00+18ююз4125999 0.0 1021205
05:00+16ююз412603 0.0 1020208
08:00+19юз495970 0.0 1021249
11:00+24юз464567 0.0 1021514
14:00+27юз673791 0.0 1021993
17:00+28юз583833 0.0 10201343
20:00+23юз41057100 0.0 1019193
16 мая, вс
вс1623:00+20юз41159100 0.0 1019167
02:00+18юз485698 0.0 1020111
05:00+16ююз465821 0.0 102081
08:00+20ююз38585 0.0 1020204
11:00+26ююз57425 0.0 1020602
14:00+29юз69325 0.0 10192324
17:00+29юз69365 0.0 10182841
20:00+24ююз410545 0.0 1018188
17 мая, пн
пн1723:00+20ююз47565 0.0 101886
02:00+18ююз4105970 0.0 1018135
05:00+17зюз3661100 0.0 101885
08:00+20юз3763100 0.1 1019193
11:00+24юз574938 0.1 1019509
14:00+28зюз79385 0.0 10181549
17:00+29зюз611396 0.0 10172951
20:00+25з3555100 0.0 101779
18 мая, вт
вт1823:00+20з346091 0.0 101859
02:00+17сз226911 0.0 101814
05:00+16ссз017261 0.0 101911
08:00+20ссз116355 0.1 1019126
11:00+25зсз124998 0.1 1019737
14:00+28зсз154027 0.0 10182159
17:00+26ссз234683 0.0 101766
20:00+21юв367088 0.0 1018121
19 мая, ср
ср1923:00+19ююв597066 0.0 1019224
02:00+16всв467811 0.0 101997
05:00+15в49775 0.3 1020156
08:00+18вюв48655 0.0 1021254
11:00+23вюв56495 0.0 1020668
14:00+25вюв55425 0.0 10201217
17:00+26вюв44375 0.0 10191272
20:00+22в34545 0.0 101862